Time,TemperatureF,DewpointF,PressureIn,WindDirection,WindDirectionDegrees,WindSpeedMPH,WindSpeedGustMPH,Humidity,HourlyPrecipIn,Conditions,Clouds,dailyrainin,SoftwareType,DateUTC
2013-10-08 00:02:00,57.2,50.8,-100.00,ESE,113,0.0,0.0,79,-99.99,,,-99.99,WSDL version 423,2013-10-08 04:02:00,
2013-10-08 00:05:00,57.2,50.8,-100.00,ESE,113,0.0,0.0,79,-99.99,,,-99.99,WSDL version 423,2013-10-08 04:05:00,
2013-10-08 00:11:00,57.0,50.9,-100.00,NNE,23,0.0,0.0,80,-99.99,,,-99.99,WSDL version 423,2013-10-08 04:11:00,
2013-10-08 00:17:00,56.8,50.7,-100.00,NNE,23,0.0,0.0,80,-99.99,,,-99.99,WSDL version 423,2013-10-08 04:17:00,
2013-10-08 00:23:00,56.5,50.4,-100.00,NNE,23,0.0,0.0,80,-99.99,,,-99.99,WSDL version 423,2013-10-08 04:23:00,
2013-10-08 00:26:00,56.4,50.3,-100.00,NNE,23,0.0,0.0,80,-99.99,,,-99.99,WSDL version 423,2013-10-08 04:26:00,
2013-10-08 00:29:00,56.3,50.3,-100.00,NNE,23,0.0,0.0,81,-99.99,,,-99.99,WSDL version 423,2013-10-08 04:29:00,
2013-10-08 00:35:00,56.1,50.4,-100.00,NNE,23,0.0,0.0,81,-99.99,,,-99.99,WSDL version 423,2013-10-08 04:35:00,
2013-10-08 00:41:00,55.9,50.2,-100.00,NNE,23,0.0,0.0,81,-99.99,,,-99.99,WSDL version 423,2013-10-08 04:41:00,
2013-10-08 00:47:00,55.7,50.0,-100.00,NNE,23,0.0,0.0,81,-99.99,,,-99.99,WSDL version 423,2013-10-08 04:47:00,
2013-10-08 00:53:00,55.4,49.7,-100.00,NNE,23,0.0,0.0,81,-99.99,,,-99.99,WSDL version 423,2013-10-08 04:53:00,
2013-10-08 00:59:00,55.2,49.8,-100.00,NNE,23,0.0,0.0,82,-99.99,,,-99.99,WSDL version 423,2013-10-08 04:59:00,
2013-10-08 01:05:00,55.0,49.6,-100.00,NNE,23,0.0,0.0,82,-99.99,,,-99.99,WSDL version 423,2013-10-08 05:05:00,
2013-10-08 01:11:00,54.8,49.5,-100.00,NNE,23,0.0,0.0,82,-99.99,,,-99.99,WSDL version 423,2013-10-08 05:11:00,
2013-10-08 01:17:00,54.5,49.2,-100.00,NNE,23,0.0,0.0,82,-99.99,,,-99.99,WSDL version 423,2013-10-08 05:17:00,
2013-10-08 01:23:00,54.4,49.1,-100.00,NNE,23,0.0,0.0,82,-99.99,,,-99.99,WSDL version 423,2013-10-08 05:23:00,
2013-10-08 01:29:00,54.3,49.0,-100.00,NNE,23,0.0,0.0,82,-99.99,,,-99.99,WSDL version 423,2013-10-08 05:29:00,
2013-10-08 01:35:00,54.0,49.1,-100.00,NNE,23,0.0,0.0,83,-99.99,,,-99.99,WSDL version 423,2013-10-08 05:35:00,
2013-10-08 01:41:00,53.8,48.9,-100.00,NNE,23,0.0,0.0,83,-99.99,,,-99.99,WSDL version 423,2013-10-08 05:41:00,
2013-10-08 01:47:00,53.6,48.7,-100.00,NNE,23,0.0,0.0,83,0.00,,,0.00,WSDL version 423,2013-10-08 05:47:00,
2013-10-08 01:53:00,53.4,48.5,-100.00,NNE,23,0.0,0.0,83,-99.99,,,-99.99,WSDL version 423,2013-10-08 05:53:00,
2013-10-08 01:59:00,53.3,48.4,-100.00,NNE,23,0.0,0.0,83,-99.99,,,-99.99,WSDL version 423,2013-10-08 05:59:00,
2013-10-08 02:05:00,53.1,48.1,-100.00,NNE,23,0.0,0.0,83,-99.99,,,-99.99,WSDL version 423,2013-10-08 06:05:00,
2013-10-08 02:11:00,52.9,48.0,-100.00,NNE,23,0.0,0.0,83,-99.99,,,-99.99,WSDL version 423,2013-10-08 06:11:00,
2013-10-08 02:17:00,52.8,48.1,-100.00,NNE,23,0.0,0.0,84,-99.99,,,-99.99,WSDL version 423,2013-10-08 06:17:00,
2013-10-08 02:23:00,52.7,48.1,-100.00,NNE,23,0.0,0.0,84,-99.99,,,-99.99,WSDL version 423,2013-10-08 06:23:00,
2013-10-08 02:29:00,52.5,48.0,-100.00,NNE,23,0.0,0.0,84,-99.99,,,-99.99,WSDL version 423,2013-10-08 06:29:00,
2013-10-08 02:35:00,52.5,47.9,-100.00,NNE,23,0.0,0.0,84,-99.99,,,-99.99,WSDL version 423,2013-10-08 06:35:00,
2013-10-08 02:41:00,52.3,47.8,-100.00,NNE,23,0.0,0.0,84,-99.99,,,-99.99,WSDL version 423,2013-10-08 06:41:00,
2013-10-08 02:47:00,52.3,47.8,-100.00,NNE,23,0.0,0.0,84,-99.99,,,-99.99,WSDL version 423,2013-10-08 06:47:00,
2013-10-08 02:53:00,52.1,47.6,-100.00,NNE,23,0.0,0.0,84,-99.99,,,-99.99,WSDL version 423,2013-10-08 06:53:00,
2013-10-08 02:59:00,52.0,47.4,-100.00,NNE,23,0.0,0.0,84,-99.99,,,-99.99,WSDL version 423,2013-10-08 06:59:00,
2013-10-08 03:05:00,51.9,47.4,-100.00,NNE,23,0.0,0.0,84,-99.99,,,-99.99,WSDL version 423,2013-10-08 07:05:00,
2013-10-08 03:11:00,51.8,47.3,-100.00,NNE,23,0.0,0.0,84,-99.99,,,-99.99,WSDL version 423,2013-10-08 07:11:00,
2013-10-08 03:17:00,51.8,47.3,-100.00,NNE,23,0.0,0.0,86,-99.99,,,-99.99,WSDL version 423,2013-10-08 07:17:00,
2013-10-08 03:23:00,51.6,47.4,-100.00,NNE,23,0.0,0.0,86,-99.99,,,-99.99,WSDL version 423,2013-10-08 07:23:00,
2013-10-08 03:29:00,51.5,47.3,-100.00,NNE,23,0.0,0.0,86,-99.99,,,-99.99,WSDL version 423,2013-10-08 07:29:00,
2013-10-08 03:35:00,51.3,47.1,-100.00,NNE,23,0.0,0.0,86,-99.99,,,-99.99,WSDL version 423,2013-10-08 07:35:00,
2013-10-08 03:41:00,51.2,47.1,-100.00,NNE,23,0.0,0.0,86,-99.99,,,-99.99,WSDL version 423,2013-10-08 07:41:00,
2013-10-08 03:47:00,51.1,46.9,-100.00,NNE,23,0.0,0.0,86,-99.99,,,-99.99,WSDL version 423,2013-10-08 07:47:00,
2013-10-08 03:53:00,50.9,46.8,-100.00,NNE,23,0.0,0.0,86,-99.99,,,-99.99,WSDL version 423,2013-10-08 07:53:00,
2013-10-08 03:59:00,50.9,46.7,-100.00,NNE,23,0.0,0.0,86,-99.99,,,-99.99,WSDL version 423,2013-10-08 07:59:00,
2013-10-08 04:05:00,50.8,46.6,-100.00,NNE,23,0.0,0.0,86,-99.99,,,-99.99,WSDL version 423,2013-10-08 08:05:00,
2013-10-08 04:11:00,50.7,46.6,-100.00,NNE,23,0.0,0.0,86,0.00,,,0.00,WSDL version 423,2013-10-08 08:11:00,
2013-10-08 04:17:00,50.7,46.6,-100.00,NNE,23,0.0,0.0,86,-99.99,,,-99.99,WSDL version 423,2013-10-08 08:17:00,
2013-10-08 04:23:00,50.7,46.5,-100.00,NNE,23,0.0,0.0,86,-99.99,,,-99.99,WSDL version 423,2013-10-08 08:23:00,
2013-10-08 04:29:00,50.5,46.4,-100.00,NNE,23,0.0,0.0,86,-99.99,,,-99.99,WSDL version 423,2013-10-08 08:29:00,
2013-10-08 04:35:00,50.5,46.4,-100.00,NNE,23,0.0,0.0,86,-99.99,,,-99.99,WSDL version 423,2013-10-08 08:35:00,
2013-10-08 04:41:00,50.4,46.2,-100.00,NNE,23,0.0,0.0,86,-99.99,,,-99.99,WSDL version 423,2013-10-08 08:41:00,
2013-10-08 04:47:00,50.4,46.4,-100.00,NNE,23,0.0,0.0,87,-99.99,,,-99.99,WSDL version 423,2013-10-08 08:47:00,
2013-10-08 04:53:00,50.2,46.2,-100.00,NNE,23,0.0,0.0,86,-99.99,,,-99.99,WSDL version 423,2013-10-08 08:53:00,
2013-10-08 04:59:00,50.2,46.1,-100.00,NNE,23,0.0,0.0,87,-99.99,,,-99.99,WSDL version 423,2013-10-08 08:59:00,
2013-10-08 05:05:00,50.2,46.4,-100.00,East,90,0.0,0.0,87,-99.99,,,-99.99,WSDL version 423,2013-10-08 09:05:00,
2013-10-08 05:11:00,50.3,46.5,-100.00,East,100,0.0,0.0,87,-99.99,,,-99.99,WSDL version 423,2013-10-08 09:11:00,
2013-10-08 05:17:00,50.4,46.5,-100.00,SE,135,0.0,0.0,86,-99.99,,,-99.99,WSDL version 423,2013-10-08 09:17:00,
2013-10-08 05:23:00,50.2,46.0,-100.00,SE,135,0.0,0.0,86,-99.99,,,-99.99,WSDL version 423,2013-10-08 09:23:00,
2013-10-08 05:29:00,50.2,46.0,-100.00,SE,135,0.0,0.0,86,-99.99,,,-99.99,WSDL version 423,2013-10-08 09:29:00,
2013-10-08 05:35:00,50.2,46.4,-100.00,SE,135,0.0,1.3,87,-99.99,,,-99.99,WSDL version 423,2013-10-08 09:35:00,
2013-10-08 05:41:00,50.3,46.5,-100.00,ESE,103,0.0,0.0,87,-99.99,,,-99.99,WSDL version 423,2013-10-08 09:41:00,
2013-10-08 05:47:00,50.6,46.4,-100.00,ESE,113,0.3,1.6,86,-99.99,,,-99.99,WSDL version 423,2013-10-08 09:47:00,
2013-10-08 05:53:00,50.8,46.6,-100.00,ESE,120,0.0,1.6,86,-99.99,,,-99.99,WSDL version 423,2013-10-08 09:53:00,
2013-10-08 05:59:00,50.9,46.5,-100.00,ESE,113,0.3,1.6,84,-99.99,,,-99.99,WSDL version 423,2013-10-08 09:59:00,
2013-10-08 06:05:00,51.2,46.4,-100.00,ESE,121,0.8,2.7,83,-99.99,,,-99.99,WSDL version 423,2013-10-08 10:05:00,
2013-10-08 06:11:00,51.5,46.3,-100.00,SE,129,1.1,2.7,82,-99.99,,,-99.99,WSDL version 423,2013-10-08 10:11:00,
2013-10-08 06:17:00,51.7,45.8,-100.00,ESE,120,1.6,2.9,79,-99.99,,,-99.99,WSDL version 423,2013-10-08 10:17:00,
2013-10-08 06:23:00,51.8,45.3,-100.00,ESE,113,1.7,3.1,78,0.00,,,0.00,WSDL version 423,2013-10-08 10:23:00,
2013-10-08 06:29:00,52.3,45.6,-100.00,SE,125,1.9,3.8,77,-99.99,,,-99.99,WSDL version 423,2013-10-08 10:29:00,
2013-10-08 06:35:00,52.4,44.9,-100.00,ESE,105,1.1,3.4,75,0.00,,,0.00,WSDL version 423,2013-10-08 10:35:00,
2013-10-08 06:41:00,52.3,44.8,-100.00,SE,128,0.4,3.4,76,-99.99,,,-99.99,WSDL version 423,2013-10-08 10:41:00,
2013-10-08 06:47:00,52.2,44.5,-100.00,ESE,107,0.3,4.3,75,-99.99,,,-99.99,WSDL version 423,2013-10-08 10:47:00,
2013-10-08 06:53:00,52.2,44.5,-100.00,ESE,118,0.5,4.3,75,-99.99,,,-99.99,WSDL version 423,2013-10-08 10:53:00,
2013-10-08 06:59:00,51.8,44.6,-100.00,South,188,0.0,2.0,77,-99.99,,,-99.99,WSDL version 423,2013-10-08 10:59:00,
2013-10-08 07:05:00,51.4,44.6,-100.00,ESE,110,0.3,3.1,77,0.00,,,0.00,WSDL version 423,2013-10-08 11:05:00,
2013-10-08 07:11:00,51.4,44.5,-100.00,ESE,107,0.7,3.1,77,-99.99,,,-99.99,WSDL version 423,2013-10-08 11:11:00,
2013-10-08 07:17:00,51.5,44.2,-100.00,ESE,113,1.7,3.1,76,-99.99,,,-99.99,WSDL version 423,2013-10-08 11:17:00,
2013-10-08 07:23:00,51.5,44.2,-100.00,SE,133,1.1,3.6,76,-99.99,,,-99.99,WSDL version 423,2013-10-08 11:23:00,
2013-10-08 07:29:00,51.4,44.1,-100.00,SE,132,0.0,4.0,76,0.00,,,0.00,WSDL version 423,2013-10-08 11:29:00,
2013-10-08 07:35:00,51.3,44.0,-100.00,ESE,121,0.0,3.4,76,-99.99,,,-99.99,WSDL version 423,2013-10-08 11:35:00,
2013-10-08 07:41:00,51.2,44.2,-100.00,East,90,0.0,2.5,77,-99.99,,,-99.99,WSDL version 423,2013-10-08 11:41:00,
2013-10-08 07:47:00,51.1,44.2,-100.00,East,90,0.0,2.2,78,-99.99,,,-99.99,WSDL version 423,2013-10-08 11:47:00,
2013-10-08 07:53:00,50.9,44.3,-100.00,North,360,0.0,2.2,78,-99.99,,,-99.99,WSDL version 423,2013-10-08 11:53:00,
2013-10-08 07:59:00,50.9,44.6,-100.00,NNE,23,0.0,0.0,79,-99.99,,,-99.99,WSDL version 423,2013-10-08 11:59:00,
2013-10-08 08:05:00,50.9,44.6,-100.00,NNE,23,0.0,0.0,79,-99.99,,,-99.99,WSDL version 423,2013-10-08 12:05:00,
2013-10-08 08:11:00,51.1,44.9,-100.00,NNE,23,0.0,0.0,80,0.00,,,0.00,WSDL version 423,2013-10-08 12:11:00,
2013-10-08 08:17:00,51.4,45.4,-100.00,SE,135,0.0,0.0,80,-99.99,,,-99.99,WSDL version 423,2013-10-08 12:17:00,
2013-10-08 08:23:00,51.9,45.7,-100.00,East,80,0.0,0.0,79,-99.99,,,-99.99,WSDL version 423,2013-10-08 12:23:00,
2013-10-08 08:29:00,52.6,46.1,-100.00,East,100,0.0,2.5,78,-99.99,,,-99.99,WSDL version 423,2013-10-08 12:29:00,
2013-10-08 08:35:00,53.3,46.6,-100.00,East,79,0.0,2.0,77,-99.99,,,-99.99,WSDL version 423,2013-10-08 12:35:00,
2013-10-08 08:41:00,53.9,46.6,-100.00,ENE,73,0.1,1.6,76,-99.99,,,-99.99,WSDL version 423,2013-10-08 12:41:00,
2013-10-08 08:47:00,54.4,46.4,-100.00,ESE,120,0.5,2.5,73,-99.99,,,-99.99,WSDL version 423,2013-10-08 12:47:00,
2013-10-08 08:53:00,55.1,46.6,-100.00,ESE,104,0.7,2.5,73,-99.99,,,-99.99,WSDL version 423,2013-10-08 12:53:00,
2013-10-08 08:59:00,55.5,46.6,-100.00,SE,125,0.7,3.6,72,-99.99,,,-99.99,WSDL version 423,2013-10-08 12:59:00,
2013-10-08 09:05:00,55.9,46.2,-100.00,ESE,107,1.1,4.3,71,-99.99,,,-99.99,WSDL version 423,2013-10-08 13:05:00,
2013-10-08 09:11:00,56.3,46.7,-100.00,ESE,118,0.2,3.6,69,-99.99,,,-99.99,WSDL version 423,2013-10-08 13:11:00,
2013-10-08 09:17:00,56.6,46.6,-100.00,East,87,0.7,3.4,70,-99.99,,,-99.99,WSDL version 423,2013-10-08 13:17:00,
2013-10-08 09:23:00,56.9,46.7,-100.00,ESE,121,1.6,3.4,68,-99.99,,,-99.99,WSDL version 423,2013-10-08 13:23:00,
2013-10-08 09:29:00,57.2,46.5,-100.00,SE,130,1.7,3.4,67,-99.99,,,-99.99,WSDL version 423,2013-10-08 13:29:00,
2013-10-08 09:35:00,57.4,46.1,-100.00,WSW,245,0.4,3.4,66,-99.99,,,-99.99,WSDL version 423,2013-10-08 13:35:00,
2013-10-08 09:41:00,57.6,45.6,-100.00,East,101,1.2,6.3,62,-99.99,,,-99.99,WSDL version 423,2013-10-08 13:41:00,
2013-10-08 09:47:00,57.7,45.1,-100.00,SE,130,0.2,6.3,64,-99.99,,,-99.99,WSDL version 423,2013-10-08 13:47:00,
2013-10-08 09:53:00,57.9,44.2,-100.00,East,98,1.1,4.0,61,-99.99,,,-99.99,WSDL version 423,2013-10-08 13:53:00,
2013-10-08 09:59:00,58.2,44.7,-100.00,WNW,293,0.7,3.6,61,-99.99,,,-99.99,WSDL version 423,2013-10-08 13:59:00,
2013-10-08 10:05:00,58.4,44.3,-100.00,SE,138,2.8,4.7,55,-99.99,,,-99.99,WSDL version 423,2013-10-08 14:05:00,
2013-10-08 10:11:00,58.7,43.5,-100.00,NE,51,2.0,4.7,57,-99.99,,,-99.99,WSDL version 423,2013-10-08 14:11:00,
2013-10-08 10:17:00,59.1,44.2,-100.00,ESE,107,2.0,3.8,56,-99.99,,,-99.99,WSDL version 423,2013-10-08 14:17:00,
2013-10-08 10:23:00,59.3,44.6,-100.00,ENE,68,2.7,5.6,56,-99.99,,,-99.99,WSDL version 423,2013-10-08 14:23:00,
2013-10-08 10:29:00,59.7,44.2,-100.00,East,95,2.0,5.6,58,-99.99,,,-99.99,WSDL version 423,2013-10-08 14:29:00,
2013-10-08 10:35:00,60.1,45.1,-100.00,ESE,118,0.7,3.6,58,-99.99,,,-99.99,WSDL version 423,2013-10-08 14:35:00,
2013-10-08 10:41:00,60.5,45.4,-100.00,ESE,107,0.7,3.1,58,-99.99,,,-99.99,WSDL version 423,2013-10-08 14:41:00,
2013-10-08 10:47:00,60.8,44.7,-100.00,South,169,1.3,3.6,56,-99.99,,,-99.99,WSDL version 423,2013-10-08 14:47:00,
2013-10-08 10:53:00,60.8,42.0,-100.00,SSW,193,2.3,8.7,50,-99.99,,,-99.99,WSDL version 423,2013-10-08 14:53:00,
2013-10-08 10:59:00,60.8,43.2,-100.00,ESE,113,1.7,5.4,53,-99.99,,,-99.99,WSDL version 423,2013-10-08 14:59:00,
2013-10-08 11:05:00,61.0,42.5,-100.00,ESE,105,2.1,4.7,50,-99.99,,,-99.99,WSDL version 423,2013-10-08 15:05:00,
2013-10-08 11:11:00,61.2,43.0,-100.00,NNE,18,0.7,4.3,53,-99.99,,,-99.99,WSDL version 423,2013-10-08 15:11:00,
2013-10-08 11:17:00,61.4,43.3,-100.00,East,96,0.4,4.3,53,-99.99,,,-99.99,WSDL version 423,2013-10-08 15:17:00,
2013-10-08 11:23:00,61.9,44.6,-100.00,East,84,1.9,4.3,53,-99.99,,,-99.99,WSDL version 423,2013-10-08 15:23:00,
2013-10-08 11:29:00,62.3,45.6,-100.00,ESE,105,0.5,3.8,55,-99.99,,,-99.99,WSDL version 423,2013-10-08 15:29:00,
2013-10-08 11:35:00,62.6,44.2,-100.00,East,80,1.9,4.9,51,-99.99,,,-99.99,WSDL version 423,2013-10-08 15:35:00,
2013-10-08 11:41:00,62.9,44.9,-100.00,East,82,1.2,4.9,52,-99.99,,,-99.99,WSDL version 423,2013-10-08 15:41:00,
2013-10-08 11:47:00,63.1,42.2,-100.00,ESE,103,2.5,4.3,45,-99.99,,,-99.99,WSDL version 423,2013-10-08 15:47:00,
2013-10-08 11:53:00,63.2,43.2,-100.00,SE,133,1.7,5.8,49,-99.99,,,-99.99,WSDL version 423,2013-10-08 15:53:00,
2013-10-08 11:59:00,63.4,42.8,-100.00,SSW,205,2.7,5.8,47,-99.99,,,-99.99,WSDL version 423,2013-10-08 15:59:00,
2013-10-08 12:05:00,63.6,44.5,-100.00,ESE,107,0.7,5.6,50,-99.99,,,-99.99,WSDL version 423,2013-10-08 16:05:00,
2013-10-08 12:11:00,63.9,43.8,-100.00,WNW,290,2.2,4.3,47,-99.99,,,-99.99,WSDL version 423,2013-10-08 16:11:00,
2013-10-08 12:17:00,64.2,43.6,-100.00,SE,125,1.7,4.3,46,-99.99,,,-99.99,WSDL version 423,2013-10-08 16:17:00,
2013-10-08 12:23:00,64.4,44.4,-100.00,East,84,1.0,3.1,47,-99.99,,,-99.99,WSDL version 423,2013-10-08 16:23:00,
2013-10-08 12:29:00,64.7,42.8,-100.00,SE,125,3.0,6.5,42,-99.99,,,-99.99,WSDL version 423,2013-10-08 16:29:00,
2013-10-08 12:35:00,64.4,40.7,-100.00,WSW,253,1.8,6.5,43,-99.99,,,-99.99,WSDL version 423,2013-10-08 16:35:00,
2013-10-08 12:41:00,64.7,43.3,-100.00,NE,48,0.2,4.7,46,-99.99,,,-99.99,WSDL version 423,2013-10-08 16:41:00,
2013-10-08 12:47:00,64.7,42.4,-100.00,SE,141,2.2,5.6,44,0.00,,,0.00,WSDL version 423,2013-10-08 16:47:00,
2013-10-08 12:53:00,64.8,42.0,-100.00,East,90,2.9,5.8,43,-99.99,,,-99.99,WSDL version 423,2013-10-08 16:53:00,
2013-10-08 12:59:00,65.1,43.3,-100.00,ESE,113,1.2,5.8,46,-99.99,,,-99.99,WSDL version 423,2013-10-08 16:59:00,
2013-10-08 13:07:00,65.6,42.8,-100.00,East,90,2.2,4.3,41,-99.99,,,-99.99,WSDL version 423,2013-10-08 17:07:00,
2013-10-08 13:13:00,65.6,42.6,-100.00,ESE,113,1.8,4.3,44,-99.99,,,-99.99,WSDL version 423,2013-10-08 17:13:00,
2013-10-08 13:19:00,65.8,43.1,-100.00,East,101,1.0,3.8,45,-99.99,,,-99.99,WSDL version 423,2013-10-08 17:19:00,
2013-10-08 13:25:00,65.7,42.9,-100.00,ENE,58,1.6,3.4,45,-99.99,,,-99.99,WSDL version 423,2013-10-08 17:25:00,
2013-10-08 13:31:00,66.1,43.9,-100.00,East,90,0.8,4.9,45,-99.99,,,-99.99,WSDL version 423,2013-10-08 17:31:00,
2013-10-08 13:37:00,66.2,43.8,-100.00,NE,48,0.2,5.4,45,-99.99,,,-99.99,WSDL version 423,2013-10-08 17:37:00,
2013-10-08 13:43:00,66.5,44.6,-100.00,SSE,155,1.6,5.4,45,-99.99,,,-99.99,WSDL version 423,2013-10-08 17:43:00,
2013-10-08 13:49:00,66.3,43.6,-100.00,NNW,335,1.2,3.6,44,-99.99,,,-99.99,WSDL version 423,2013-10-08 17:49:00,
2013-10-08 13:55:00,66.4,43.8,-100.00,East,88,1.6,4.0,43,0.00,,,0.00,WSDL version 423,2013-10-08 17:55:00,
2013-10-08 14:01:00,66.8,42.9,-100.00,South,172,1.1,4.0,44,-99.99,,,-99.99,WSDL version 423,2013-10-08 18:01:00,
2013-10-08 14:07:00,66.6,43.4,-100.00,North,3,1.6,2.9,44,-99.99,,,-99.99,WSDL version 423,2013-10-08 18:07:00,
2013-10-08 14:13:00,66.5,42.6,-100.00,ESE,118,1.9,4.0,43,-99.99,,,-99.99,WSDL version 423,2013-10-08 18:13:00,
2013-10-08 14:19:00,67.0,42.6,-100.00,ESE,115,2.0,4.0,42,-99.99,,,-99.99,WSDL version 423,2013-10-08 18:19:00,
2013-10-08 14:25:00,67.2,41.2,-100.00,SE,141,2.4,6.0,39,-99.99,,,-99.99,WSDL version 423,2013-10-08 18:25:00,
2013-10-08 14:31:00,67.2,42.5,-100.00,East,93,1.7,6.0,39,-99.99,,,-99.99,WSDL version 423,2013-10-08 18:31:00,
2013-10-08 14:37:00,67.3,41.1,-100.00,ESE,108,2.7,5.8,36,-99.99,,,-99.99,WSDL version 423,2013-10-08 18:37:00,
2013-10-08 14:43:00,67.6,42.9,-100.00,WSW,253,1.3,5.8,41,-99.99,,,-99.99,WSDL version 423,2013-10-08 18:43:00,
2013-10-08 14:49:00,67.7,40.7,-100.00,SSE,154,1.9,5.4,36,-99.99,,,-99.99,WSDL version 423,2013-10-08 18:49:00,
2013-10-08 14:55:00,67.9,41.0,-100.00,NNE,15,1.7,3.8,39,-99.99,,,-99.99,WSDL version 423,2013-10-08 18:55:00,
2013-10-08 15:01:00,68.0,41.4,-100.00,SW,215,1.4,6.3,39,-99.99,,,-99.99,WSDL version 423,2013-10-08 19:01:00,
2013-10-08 15:07:00,67.8,43.0,-100.00,ESE,103,1.8,6.3,37,-99.99,,,-99.99,WSDL version 423,2013-10-08 19:07:00,
2013-10-08 15:13:00,67.8,42.9,-100.00,ESE,123,1.3,4.3,42,-99.99,,,-99.99,WSDL version 423,2013-10-08 19:13:00,
2013-10-08 15:19:00,68.0,42.2,-100.00,SE,125,2.7,5.4,40,-99.99,,,-99.99,WSDL version 423,2013-10-08 19:19:00,
2013-10-08 15:25:00,68.2,43.5,-100.00,NW,315,0.3,5.4,42,-99.99,,,-99.99,WSDL version 423,2013-10-08 19:25:00,
2013-10-08 15:31:00,68.5,43.4,-100.00,ESE,118,2.2,4.3,38,-99.99,,,-99.99,WSDL version 423,2013-10-08 19:31:00,
2013-10-08 15:37:00,68.2,43.1,-100.00,SSE,152,0.9,4.7,42,-99.99,,,-99.99,WSDL version 423,2013-10-08 19:37:00,
2013-10-08 15:43:00,68.0,41.9,-100.00,SE,124,1.8,5.4,38,-99.99,,,-99.99,WSDL version 423,2013-10-08 19:43:00,
2013-10-08 15:49:00,68.0,43.0,-100.00,ESE,118,2.0,3.8,39,-99.99,,,-99.99,WSDL version 423,2013-10-08 19:49:00,
2013-10-08 15:55:00,67.5,40.4,-100.00,ESE,108,2.4,6.5,38,-99.99,,,-99.99,WSDL version 423,2013-10-08 19:55:00,
2013-10-08 16:01:00,67.3,42.5,-100.00,North,355,0.7,5.4,42,-99.99,,,-99.99,WSDL version 423,2013-10-08 20:01:00,
2013-10-08 16:07:00,67.2,42.3,-100.00,SE,146,0.6,5.4,42,-99.99,,,-99.99,WSDL version 423,2013-10-08 20:07:00,
2013-10-08 16:13:00,67.0,42.2,-100.00,NNE,17,1.1,2.7,42,-99.99,,,-99.99,WSDL version 423,2013-10-08 20:13:00,
2013-10-08 16:19:00,66.9,42.6,-100.00,East,96,1.4,3.4,42,-99.99,,,-99.99,WSDL version 423,2013-10-08 20:19:00,
2013-10-08 16:25:00,66.7,42.6,-100.00,NNW,333,0.0,4.0,43,0.00,,,0.00,WSDL version 423,2013-10-08 20:25:00,
2013-10-08 16:31:00,66.7,43.6,-100.00,NNE,23,0.1,2.7,43,-99.99,,,-99.99,WSDL version 423,2013-10-08 20:31:00,
2013-10-08 16:37:00,66.6,43.0,-100.00,East,90,0.1,3.8,43,-99.99,,,-99.99,WSDL version 423,2013-10-08 20:37:00,
2013-10-08 16:43:00,66.4,42.0,-100.00,SE,143,1.1,3.8,42,-99.99,,,-99.99,WSDL version 423,2013-10-08 20:43:00,
2013-10-08 16:49:00,66.4,42.5,-100.00,NNE,19,0.0,3.6,43,-99.99,,,-99.99,WSDL version 423,2013-10-08 20:49:00,
2013-10-08 16:55:00,66.2,42.3,-100.00,North,360,0.4,3.6,43,0.00,,,0.00,WSDL version 423,2013-10-08 20:55:00,
2013-10-08 17:01:00,66.1,42.3,-100.00,ENE,68,1.0,2.9,43,-99.99,,,-99.99,WSDL version 423,2013-10-08 21:01:00,
2013-10-08 17:07:00,65.9,42.2,-100.00,ENE,70,0.8,2.9,43,-99.99,,,-99.99,WSDL version 423,2013-10-08 21:07:00,
2013-10-08 17:13:00,65.7,42.7,-100.00,NE,39,0.1,2.5,43,-99.99,,,-99.99,WSDL version 423,2013-10-08 21:13:00,
2013-10-08 17:19:00,65.4,43.0,-100.00,ENE,71,0.0,2.2,44,-99.99,,,-99.99,WSDL version 423,2013-10-08 21:19:00,
2013-10-08 17:25:00,65.1,42.6,-100.00,NNE,20,0.0,1.6,44,-99.99,,,-99.99,WSDL version 423,2013-10-08 21:25:00,
2013-10-08 17:31:00,64.8,42.3,-100.00,NNW,338,0.5,2.0,44,-99.99,,,-99.99,WSDL version 423,2013-10-08 21:31:00,
2013-10-08 17:37:00,64.7,42.3,-100.00,North,354,0.1,2.0,44,-99.99,,,-99.99,WSDL version 423,2013-10-08 21:37:00,
2013-10-08 17:43:00,64.4,42.5,-100.00,North,360,0.0,1.6,45,-99.99,,,-99.99,WSDL version 423,2013-10-08 21:43:00,
2013-10-08 17:49:00,64.0,42.3,-100.00,NNE,29,0.6,2.7,45,-99.99,,,-99.99,WSDL version 423,2013-10-08 21:49:00,
2013-10-08 17:55:00,63.6,42.1,-100.00,East,98,0.0,2.7,46,-99.99,,,-99.99,WSDL version 423,2013-10-08 21:55:00,
2013-10-08 18:01:00,63.4,42.0,-100.00,NE,40,0.0,1.6,46,-99.99,,,-99.99,WSDL version 423,2013-10-08 22:01:00,
2013-10-08 18:07:00,63.1,42.0,-100.00,East,90,0.0,1.6,46,-99.99,,,-99.99,WSDL version 423,2013-10-08 22:07:00,
2013-10-08 18:13:00,62.7,41.6,-100.00,North,360,0.0,0.0,46,-99.99,,,-99.99,WSDL version 423,2013-10-08 22:13:00,
2013-10-08 18:19:00,62.3,41.8,-100.00,East,90,0.0,1.3,47,-99.99,,,-99.99,WSDL version 423,2013-10-08 22:19:00,
2013-10-08 18:25:00,61.9,41.5,-100.00,South,180,0.0,1.3,47,-99.99,,,-99.99,WSDL version 423,2013-10-08 22:25:00,
2013-10-08 18:31:00,61.5,41.6,-100.00,South,180,0.0,0.0,48,-99.99,,,-99.99,WSDL version 423,2013-10-08 22:31:00,
2013-10-08 18:37:00,61.1,41.3,-100.00,South,180,0.0,0.0,48,-99.99,,,-99.99,WSDL version 423,2013-10-08 22:37:00,
2013-10-08 18:43:00,60.7,41.3,-100.00,South,180,0.0,0.0,49,-99.99,,,-99.99,WSDL version 423,2013-10-08 22:43:00,
2013-10-08 18:49:00,60.4,41.2,-100.00,South,180,0.0,0.0,49,-99.99,,,-99.99,WSDL version 423,2013-10-08 22:49:00,
2013-10-08 18:55:00,60.1,41.4,-100.00,South,180,0.0,0.0,50,-99.99,,,-99.99,WSDL version 423,2013-10-08 22:55:00,
2013-10-08 19:01:00,59.8,41.1,-100.00,South,180,0.0,0.0,50,-99.99,,,-99.99,WSDL version 423,2013-10-08 23:01:00,
2013-10-08 19:07:00,59.6,41.0,-100.00,South,180,0.0,0.0,50,-99.99,,,-99.99,WSDL version 423,2013-10-08 23:07:00,
2013-10-08 19:13:00,59.4,40.8,-100.00,South,180,0.0,0.0,51,-99.99,,,-99.99,WSDL version 423,2013-10-08 23:13:00,
2013-10-08 19:19:00,59.2,41.1,-100.00,South,180,0.0,0.0,51,-99.99,,,-99.99,WSDL version 423,2013-10-08 23:19:00,
2013-10-08 19:25:00,59.0,40.9,-100.00,South,180,0.0,0.0,51,-99.99,,,-99.99,WSDL version 423,2013-10-08 23:25:00,
2013-10-08 19:31:00,58.8,40.8,-100.00,South,180,0.0,0.0,51,-99.99,,,-99.99,WSDL version 423,2013-10-08 23:31:00,
2013-10-08 19:37:00,58.6,41.0,-100.00,South,180,0.0,0.0,52,-99.99,,,-99.99,WSDL version 423,2013-10-08 23:37:00,
2013-10-08 19:43:00,58.4,40.9,-100.00,South,180,0.0,0.0,52,-99.99,,,-99.99,WSDL version 423,2013-10-08 23:43:00,
2013-10-08 19:49:00,58.3,40.7,-100.00,South,180,0.0,0.0,52,-99.99,,,-99.99,WSDL version 423,2013-10-08 23:49:00,
2013-10-08 19:55:00,58.1,40.6,-100.00,South,180,0.0,0.0,52,-99.99,,,-99.99,WSDL version 423,2013-10-08 23:55:00,
2013-10-08 20:01:00,57.9,40.9,-100.00,South,180,0.0,0.0,53,-99.99,,,-99.99,WSDL version 423,2013-10-09 00:01:00,
2013-10-08 20:07:00,57.7,40.7,-100.00,South,180,0.0,0.0,53,-99.99,,,-99.99,WSDL version 423,2013-10-09 00:07:00,
2013-10-08 20:13:00,57.5,40.5,-100.00,South,180,0.0,0.0,53,-99.99,,,-99.99,WSDL version 423,2013-10-09 00:13:00,
2013-10-08 20:19:00,57.4,40.4,-100.00,South,180,0.0,0.0,53,-99.99,,,-99.99,WSDL version 423,2013-10-09 00:19:00,
2013-10-08 20:25:00,57.4,40.9,-100.00,South,180,0.0,0.0,54,0.00,,,0.00,WSDL version 423,2013-10-09 00:25:00,
2013-10-08 20:31:00,57.2,40.7,-100.00,South,180,0.0,0.0,54,-99.99,,,-99.99,WSDL version 423,2013-10-09 00:31:00,
2013-10-08 20:37:00,57.2,40.7,-100.00,South,180,0.0,0.0,54,-99.99,,,-99.99,WSDL version 423,2013-10-09 00:37:00,
2013-10-08 20:43:00,57.2,40.7,-100.00,South,180,0.0,0.0,54,-99.99,,,-99.99,WSDL version 423,2013-10-09 00:43:00,
2013-10-08 20:49:00,57.0,40.5,-100.00,South,180,0.0,0.0,54,-99.99,,,-99.99,WSDL version 423,2013-10-09 00:49:00,
2013-10-08 20:55:00,56.8,40.6,-100.00,South,180,0.0,0.0,55,-99.99,,,-99.99,WSDL version 423,2013-10-09 00:55:00,
2013-10-08 21:01:00,56.8,40.8,-100.00,South,180,0.0,0.0,55,-99.99,,,-99.99,WSDL version 423,2013-10-09 01:01:00,
2013-10-08 21:07:00,56.7,40.7,-100.00,West,280,0.0,0.0,55,-99.99,,,-99.99,WSDL version 423,2013-10-09 01:07:00,
2013-10-08 21:13:00,56.7,40.7,-100.00,North,360,0.0,0.0,55,-99.99,,,-99.99,WSDL version 423,2013-10-09 01:13:00,
2013-10-08 21:19:00,56.6,40.9,-100.00,SE,135,0.0,0.9,56,-99.99,,,-99.99,WSDL version 423,2013-10-09 01:19:00,
2013-10-08 21:25:00,56.5,41.0,-100.00,ESE,113,0.0,0.9,56,-99.99,,,-99.99,WSDL version 423,2013-10-09 01:25:00,
2013-10-08 21:31:00,56.5,41.0,-100.00,ESE,113,0.0,0.0,56,-99.99,,,-99.99,WSDL version 423,2013-10-09 01:31:00,
2013-10-08 21:37:00,56.3,40.8,-100.00,ESE,113,0.0,0.0,56,-99.99,,,-99.99,WSDL version 423,2013-10-09 01:37:00,
2013-10-08 21:43:00,56.3,40.8,-100.00,ESE,113,0.0,0.0,56,-99.99,,,-99.99,WSDL version 423,2013-10-09 01:43:00,
2013-10-08 21:49:00,56.3,41.3,-100.00,ESE,113,0.0,0.0,57,-99.99,,,-99.99,WSDL version 423,2013-10-09 01:49:00,
2013-10-08 21:55:00,56.2,41.2,-100.00,ESE,113,0.0,0.0,57,-99.99,,,-99.99,WSDL version 423,2013-10-09 01:55:00,
2013-10-08 22:01:00,56.0,41.0,-100.00,ESE,113,0.0,0.0,57,-99.99,,,-99.99,WSDL version 423,2013-10-09 02:01:00,
2013-10-08 22:07:00,55.9,40.9,-100.00,ESE,113,0.0,0.0,57,-99.99,,,-99.99,WSDL version 423,2013-10-09 02:07:00,
2013-10-08 22:13:00,55.8,40.8,-100.00,ESE,113,0.0,0.0,57,-99.99,,,-99.99,WSDL version 423,2013-10-09 02:13:00,
2013-10-08 22:19:00,55.6,41.1,-100.00,SSE,158,0.0,1.3,58,-99.99,,,-99.99,WSDL version 423,2013-10-09 02:19:00,
2013-10-08 22:25:00,55.6,41.1,-100.00,ESE,113,0.0,1.6,58,-99.99,,,-99.99,WSDL version 423,2013-10-09 02:25:00,
2013-10-08 22:31:00,55.5,41.0,-100.00,SE,135,0.0,0.0,58,-99.99,,,-99.99,WSDL version 423,2013-10-09 02:31:00,
2013-10-08 22:37:00,55.3,40.8,-100.00,SE,135,0.0,0.0,58,-99.99,,,-99.99,WSDL version 423,2013-10-09 02:37:00,
2013-10-08 22:43:00,55.2,40.7,-100.00,SE,135,0.0,0.0,58,-99.99,,,-99.99,WSDL version 423,2013-10-09 02:43:00,
2013-10-08 22:49:00,55.2,40.7,-100.00,North,360,0.0,0.0,58,0.00,,,0.00,WSDL version 423,2013-10-09 02:49:00,
2013-10-08 22:55:00,55.3,40.9,-100.00,ENE,74,0.0,0.0,58,-99.99,,,-99.99,WSDL version 423,2013-10-09 02:55:00,
2013-10-08 23:01:00,55.4,40.9,-100.00,WNW,293,0.0,2.0,59,-99.99,,,-99.99,WSDL version 423,2013-10-09 03:01:00,
2013-10-08 23:07:00,55.2,41.2,-100.00,East,93,0.0,1.3,59,-99.99,,,-99.99,WSDL version 423,2013-10-09 03:07:00,
2013-10-08 23:13:00,55.2,41.2,-100.00,ENE,68,0.0,1.3,59,-99.99,,,-99.99,WSDL version 423,2013-10-09 03:13:00,
2013-10-08 23:19:00,55.2,41.2,-100.00,NE,45,0.0,0.0,59,-99.99,,,-99.99,WSDL version 423,2013-10-09 03:19:00,
2013-10-08 23:25:00,55.2,41.1,-100.00,SSW,203,0.0,3.4,59,-99.99,,,-99.99,WSDL version 423,2013-10-09 03:25:00,
2013-10-08 23:31:00,55.2,41.2,-100.00,NE,45,0.0,3.4,59,-99.99,,,-99.99,WSDL version 423,2013-10-09 03:31:00,
2013-10-08 23:37:00,55.0,41.0,-100.00,East,83,0.0,0.0,59,-99.99,,,-99.99,WSDL version 423,2013-10-09 03:37:00,
2013-10-08 23:43:00,55.0,41.0,-100.00,North,360,0.4,2.5,59,-99.99,,,-99.99,WSDL version 423,2013-10-09 03:43:00,
2013-10-08 23:49:00,55.0,41.0,-100.00,North,354,0.9,2.5,59,-99.99,,,-99.99,WSDL version 423,2013-10-09 03:49:00,
2013-10-08 23:55:00,55.0,40.9,-100.00,ESE,113,0.0,2.5,59,-99.99,,,-99.99,WSDL version 423,2013-10-09 03:55:00,